timestamp,gas_concentrations,,corrected_fluxes_and_quality_flags,,,,,,,,,,storage_terms,,,turbulence,,,footprint,,
ISOdate,CO2_1_1_1,H2O_1_1_1,Tau_1_1_1,QcTau_1_1_1,H_1_1_1,QcH_1_1_1,LE_1_1_1, QcLE_1_1_1,Fc_1_1_1, QcFc_1_1_1,E_1_1_1, QcE_1_1_1,Sa_1_1_1,Sw_1_1_1,Sc_1_1_1,ustar_1_1_1,MO_length_1_1_1,ZL_1_1_1,Fetchmax_1_1_1,Fetch70_1_1_1,Fetch90_1_1_1
yyyymmddHHMM,[µmol+1mol_a-1],[mmol+1mol_a-1],[kg+1m-1s-2],[#],[W+1m-2],[#],[W+1m-2],[#],[µmol+1s-1m-2],[#],[mmol+1s-1m-2],[#],[W+1m-2],[W+1m-2],[µmol+1s-1m-2],[m+1s-1],[m],[#],[m],[m],[m]
201810060030,465.96970464268026,8.2185743794473876,0.34572131292921882,0,-6.9629534345362929,0,-9999.,-9999.,23.642393191093852,2,-9999.,-9999.,-9999.,-9999.,-9999.,0.54043123797135939,1901.0679149249756,1.13620349017633238E-002,116.51188083741646,213.02087772928618,319.14409232470376
201810060100,529.19203298805826,8.2545958515565196,0.38666461623023635,0,-7.3417112021781659,1,-9999.,-9999.,-59.888884125179693,1,-9999.,-9999.,1.4020654217309114,-367.87734156520372,50.393615331073619,0.57155432285611218,2133.0506313010478,1.01263419081736219E-002,113.94881448058678,208.33477498091372,312.12345648791876
201810060130,537.26332116322601,8.3092204737646327,0.43930434048790762,0,-13.707506759478870,0,80.242658546389919,2,103.16382864125418,1,1.7893711541074628,2,2.4229391499283097,1.9512016248390625,6.4291221775073293,0.60943255100672800,1384.6944695477287,1.55991090273185189E-002,114.92518344677656,210.11988884801895,314.79788235117866
201810060200,541.16905417319936,8.2029733526315223,0.34575802669256678,0,-19.317318979238472,0,109.92641807746590,1,25.417008201134042,1,2.4509742465505613,1,-3.2844019566420619,-3.7983090156019728,3.1132381697127944,0.54046776906051319,685.40388659236430,3.15142654171238143E-002,104.79127992935047,191.59188117540779,287.03955061256289
201810060230,520.11879379569814,8.2140006974148108,0.22878151380484682,0,-5.0538288525003514,0,-3.1342173744261643,2,14.461307695763049,2,-6.98808095615513630E-002,2,-0.44161107531998689,0.39429920721669481,-16.781904150401715,0.43960037302434796,1409.8403586860236,1.53208835787133242E-002,102.47785973107658,187.36221122543390,280.70273428072448
201810060300,512.01905198055977,8.2844796725160723,0.41765450257194314,0,13.825128576247927,0,-502.35438963523950,1,-15.983790058270312,2,-11.201480012729032,1,2.0447181955033829,2.5190503005000240,-6.4552585567036758,0.59406316609416832,-1271.8855769224697,-1.69826597548693413E-002,119.51920685464040,218.51922882621082,327.38162419864790
201810060330,526.05304429911155,8.3553055329421628,0.28073175824864594,0,3.5061650294299351,1,-266.38589180330837,2,-11.712396684327953,2,-5.9404475401986456,2,2.4001651749767992,2.5302907025336312,11.180667692198996,0.48713981729297851,-2765.3979762381687,-7.81081066291331935E-003,107.94103324509945,197.35063479889325,295.66721292284825
201810060400,562.68566899331915,8.4129038574285229,0.26203570079336730,0,1.0194152744689819,0,-159.46650353932094,0,-8.7183144994286508,2,-3.5564139053403165,0,1.9578859692557231,2.0565354404631240,29.170052598549631,0.47076210699720905,-8582.7426460711795,-2.51667804695129447E-003,113.23074373891286,207.02191264821698,310.15654947869933
201810060430,594.11554531389925,8.4877588319579829,0.24994126076012291,0,23.133539891142547,0,-489.97487862035933,1,-22.549941146733953,1,-10.928435876336186,1,2.3194845821210177,2.6699485067196114,25.003976669144301,0.45998936485610031,-352.69883743562690,-6.12420504616558101E-002,110.64013767020812,202.28545852319630,303.06047810447313
201810060500,580.03111642865281,8.5331361466822298,0.20840386716920734,0,-8.2267039210976574,1,-59.662216595950959,2,-2.5806600107772395,2,-1.3307840078281941,2,1.3443209063141595,1.6172486366316119,-11.196581137527424,0.42018984148344185,755.70659386280840,2.85825215439648311E-002,110.98659810824431,202.91889870181572,304.00948691995842
201810060530,587.98953224066179,8.6198745633962890,0.12416752006048822,0,1.2658318276575686,0,-138.49576583951486,1,1.6814963481807785,2,-3.0895858224257875,1,3.1118927444778461,3.0892462984124425,6.3231202103450448,0.32443260970853749,-2260.6038576273718,-9.55496909691660491E-003,97.512547102259418,178.28403613471585,267.10197373473773
201810060600,577.52255949656694,8.6546414348553924,0.13307772343392965,0,0.89224464755634270,1,-66.736091278145082,2,6.2150820306874266,2,-1.4888336912880280,2,1.2116390582048502,1.2374742076873850,-8.3114550162497558,0.33596997344748003,-3560.6386723552673,-6.06632741696089533E-003,107.03939113919826,195.70214546530528,293.19747550704676
201810060630,596.49814365875625,8.6984295023066203,0.16415906699024793,0,2.7703735851962539,0,-9999.,-9999.,-5.4377629347968490,2,-9999.,-9999.,1.6435272404011976,-445.14906935093069,15.065068923835605,0.37318469736712784,-1571.6984304515263,-1.37430944648806661E-002,113.27668239733261,207.10590316719191,310.28238258120024
201810060700,591.22414863698725,8.7482827622958936,0.12773223642241052,1,31.094162265265055,0,-456.96960215094686,1,-22.424669765745236,2,-10.195922558736550,1,1.3645035988147771,1.7722721061978024,-4.1832688003167799,0.32934093240514689,-96.200761325899634,-0.22453044760036370,103.10067491464950,188.50091601771996,282.40872155874968
201810060730,600.51203271477050,8.7705194770853847,4.82082211038898367E-002,0,1.1705834147729506,1,94.913891716764738,1,6.8029120923716890,0,2.1178049798311287,1,0.94837218843356585,0.79060737228716427,7.3682305182751620,0.20231247196553348,-592.49354504428675,-3.64560933712543278E-002,85.035561154632319,155.47212649188435,232.92557621558640
201810060800,692.53805225328131,8.8187689048235569,4.71033483870178515E-002,0,-5.3434353360404794,0,-9999.,-9999.,-14.623484644646746,2,-9999.,-9999.,1.8190991883280467,-489.89722348729339,72.983328588815610,0.20001320235634690,125.42086919415141,0.17222014277833794,107.98461266632626,197.43031187983939,295.78658370917071
201810060830,626.01269798745000,8.8598910636728387,7.25024138243232363E-002,0,23.248214270082755,0,-572.75336039979936,2,-3.3869262843272274,2,-12.781539095735173,2,1.4947790171845574,1.4608339933982140,-52.738486568601999,0.24819822705077774,-55.077341450040755,-0.39217579191967367,97.530985503990024,178.31774741370603,267.15247937366433
201810060900,591.29868648401168,9.0249030708131368,0.16766412317542032,0,-28.984655247708876,0,171.24163522790249,1,8.6043254635137476,0,3.8224117776944060,1,6.2838635995797469,5.8570005296974115,-27.503795082585548,0.37755691704515021,155.55416901137016,0.13885838057108685,106.71366314568594,195.10661080754952,292.30525606910555
201810060930,580.10813059597172,9.1054064957204961,0.23885677068678157,0,-11.627249215582003,0,-101.46383055799876,1,1.0492324295958722,1,-2.2651353081460370,1,3.0566583357460355,2.8564870146440065,-8.8644634367405004,0.45069349027866468,659.72215444586084,3.27410559952213548E-002,110.32655274463615,201.71212526646835,302.20152041089659
201810061000,577.34539886326945,9.2046472851866579,0.24662490951375343,0,-27.248423281605877,0,34.447916192777221,1,10.676111243142460,1,0.76915603848764191,1,3.8247805079477257,3.5190449064726015,-2.1873828992169955,0.45808545401126766,295.61835517339290,7.30671814587787322E-002,126.12471611781420,230.59620647841896,345.47513743511973
201810061030,573.02849160168796,9.2303583440649941,0.24293947326093987,0,-27.384577157215563,0,-9999.,-9999.,4.3883104220333351,0,-9999.,-9999.,2.3081949635124812,-260.37554902949387,-3.4170972900134955,0.45470520857744512,287.71209321090970,7.50750507527882943E-002,109.92236997953762,200.97315026438693,301.09440119890257
201810061100,577.97146720613785,9.2151665577192574,0.16118373082159523,0,-13.822067597848656,0,-9999.,-9999.,-6.74830743255109278E-002,2,-9999.,-9999.,2.8458009325178013,153.77645020874263,3.9113342224054533,0.37043696600825515,308.23010826370802,7.00775148854699131E-002,103.65644178934228,189.51703511741178,283.93105313123090
201810061130,576.99891812333863,9.1809022630989698,0.21914190142936227,0,-4.1348494021372870,0,-9999.,-9999.,23.726462913881797,1,-9999.,-9999.,-0.66938097332592472,346.96752295689947,-0.76984274214218906,0.43185364642080909,1632.7898550031684,1.32288916015821812E-002,101.67962471769098,185.90278303696505,278.51624491176278
201810061200,559.08790188287890,9.1671083304508123,0.26164298301181271,0,-8.0199646975808481,0,-9999.,-9999.,-11.323339830067988,2,-9999.,-9999.,-0.17699701550676553,139.70867213894087,-14.180638210475324,0.47182913914396840,1098.0274607868766,1.96716391633054849E-002,111.27794850501513,203.45158014855593,304.80754079444370
201810061230,554.33742971337915,9.1736182705770108,0.27603949682483536,0,-5.3104131443446612,0,-9999.,-9999.,1.0244274485614768,2,-9999.,-9999.,0.43867827294571843,-65.938176939262135,-3.7613597683537581,0.48461861119739619,1797.0007821732884,1.20200281570701454E-002,112.28352668333116,205.29009777122835,307.56197521498166
201810061300,507.67233659888689,9.1156283318939906,0.56535351357309804,0,1.3513990752985099,2,-9999.,-9999.,43.880327759183984,2,-9999.,-9999.,0.40797603540758681,587.48519403561522,-36.956589540639094,0.69346399697913164,-20694.042825535587,-1.04377864596600246E-003,113.52577634566372,207.56132634918131,310.96468949678973
201810061330,477.90652061187291,9.0807639139105110,0.41224427699531663,0,-2.7629377769586188,2,30.636119482508043,0,8.6195709514981989,2,0.68424100333171767,0,1.7474050692044243,-1.2362827626755546,-23.573742111433162,0.59215148501408277,6303.3915394945234,3.42672668589013782E-003,109.88772847272372,200.90981454158918,300.99951274487177
201810061400,451.50760290657121,9.1596260437763686,0.29036940441334441,0,8.2503683796113343,0,59.866780704631374,1,-13.237960700190484,1,1.3372887263892916,1,3.5634404297307869,2.7954637154302269,-20.903102886959999,0.49702756993774938,-1248.6234618861822,-1.72990502415923224E-002,102.18621614411312,186.82899373351333,279.90387731287882
201810061430,448.27176607454294,9.1636007633948839,0.28579614454727154,0,14.988691429244700,0,-85.195392323391147,2,7.5313135693321023,1,-1.9031374836394817,2,0.82353230142924227,0.14089152921918163,-2.5622355613650702,0.49309393507743443,-671.17271641328909,-3.21824762416285937E-002,102.00781711590466,186.50282341249647,279.41521473598118
201810061500,446.70916571643340,9.2117634254091474,0.36299888241625450,0,20.320385039609537,0,112.70873057438816,0,-0.97239580608756704,1,2.5181927075617123,0,4.3091338649254194,1.7065214999330558,-1.2370310600518593,0.55578646748226646,-709.15535581910933,-3.04587701732167530E-002,101.31303618104320,185.23254227455581,277.51210211581605
201810061530,439.95850992536879,9.2344055634220670,0.66681717926742634,0,51.059493056543175,0,168.14852742396175,0,-24.683482650801466,0,3.7574397384436375,0,3.7621991055117068,0.80200911113041029,-5.3432659270278737,0.75334950970554704,-703.06323332177885,-3.07226988644335591E-002,112.41646305108618,205.53314784936444,307.92610852155252
201810061600,482.05323708308578,9.1620264702844025,0.76215077225046901,0,76.232661733750220,0,-9999.,-9999.,20.964432425657431,2,-9999.,-9999.,7.6101361902721072,731.56688283578853,33.290155604883360,0.80573819696328264,-576.25937774607905,-3.74831210287353486E-002,110.28623764330491,201.63841640339274,302.09109110249591
201810061630,442.32155098047389,8.9023944934139756,0.66256263196344667,0,30.348315031240123,0,-9999.,-9999.,6.2638626884681976,2,-9999.,-9999.,-13.816821934221890,2632.3321574864617,-31.500613546384145,0.75027182510792079,-1168.9475733522265,-1.84781597501905287E-002,108.92344880906428,199.14680377519474,298.35820135418885
201810061700,446.80437591590243,8.7397307293113151,0.59035697595517334,0,41.309063538548962,1,307.58651472167998,1,-8.5599308898559610,2,6.8727399878213058,1,4.1595440634166527,-5.7695900414833963,3.5527818322126961,0.70832365504158890,-722.76026740073860,-2.98854280931629517E-002,99.792779545122400,182.45302828310693,273.34788366286199
201810061730,453.48634088988285,8.6590690795555822,0.62920187898073676,0,87.381833056504888,0,-9999.,-9999.,-130.46798191288480,1,-9999.,-9999.,-4.9052826453893577,818.57776014978242,5.3025318314961263,0.73077148356678545,-375.34217692928576,-5.75474895379781137E-002,112.93726588051079,206.48534152309577,309.35266815720712
201810061800,447.96772345887939,8.4863781122759363,0.71269166244881321,0,143.51503190564114,1,-111.40440229695346,2,65.912631448597494,2,-2.4880188609061729,2,-6.9064546036414880,-6.1464281485040884,-4.3866682442740066,0.77707062733521670,-274.89116755276183,-7.85765515578239065E-002,117.59774677241772,215.00618697764585,322.11844734945765
201810061830,417.89732529999355,8.2771470344623275,0.40442112882541764,0,69.347692461173978,0,150.29915254433814,1,-13.899614513307856,1,3.3564770700138720,1,-1.3524277757845107,-7.4503659290155708,-23.912101363742142,0.58522424114412941,-243.02755416701572,-8.88788107753240297E-002,108.27148952494349,197.95481427207301,296.57238386958625
201810061900,415.71971920561657,8.1385612303681363,0.49042417490892404,0,64.235528087137979,0,2.0699136234442204,2,4.0043320874034505,2,4.62302731517809443E-002,2,2.6348729264364112,-4.9335737402893036,-1.7313961109436942,0.64448176517772082,-350.46939987131151,-6.16316289180489987E-002,110.16445129521247,201.41575211731623,301.75749942720796
201810061930,414.68925791073184,7.8826765072480489,0.36878132519191126,0,43.056004740436279,0,80.488359072122137,0,-1.9258007286655991,0,1.7975984024650098,0,-0.81940492196205705,-9.1139808006326675,-0.81970018846823489,0.55870809842897318,-340.72493510816099,-6.33942449593341839E-002,107.47159331755091,196.49234889114877,294.38134423287738
201810062000,415.18536175653105,7.7580937628333633,0.48692068635339741,0,52.526722606650644,0,8.4220100338091601,2,2.7921234176555059,2,0.18810159430733225,2,0.95872616031900715,-4.4380627596943905,0.39471611853550748,0.64191112235762893,-423.67002191433539,-5.09830738139113518E-002,122.76098175391736,224.44622725316421,336.26134788274544
201810062030,440.11244414170261,8.1008932114845607,0.37945193299858715,0,45.519835628591338,1,472.75870326447716,2,-91.888434516814328,1,10.555045506176665,2,-8.7576831094021674,12.233853979650201,19.861644494738947,0.56628709012656064,-335.69701762274610,-6.43437351721543316E-002,110.06385436173531,201.23182883917360,301.48194884134097
201810062100,457.43526105575324,8.2461583785858945,0.29182364167860803,0,28.049342549531865,0,-9999.,-9999.,0.27118742057306244,2,-9999.,-9999.,-9.8227493474275782,-1484.6119051322519,13.830163145568493,0.49613282403783765,-366.49313557597031,-5.89369838156833387E-002,111.81277864174335,204.42942021381847,306.27252339799645
201810062130,465.63010709023217,8.3031529921797755,0.12900000134164369,0,-18.283687786048777,2,-9999.,-9999.,-15.175137460134664,2,-9999.,-9999.,-5.5415167861903427,-583.60743545673233,6.5537032174278949,0.32958594579098605,164.93068386655037,0.13096410864019162,100.08427463691422,182.98597427849361,274.14633387942678
201810062200,485.47825217545341,8.3198928433655386,0.14744536200025646,0,10.370545175050813,0,-9999.,-9999.,-6.7086781350658473,1,-9999.,-9999.,-3.3974906164130156,-171.48902814424852,15.878276584635632,0.35230761578691844,-355.10758751489311,-6.08266360940375658E-002,109.48958791122104,200.18188661474301,299.90894406462081
201810062230,501.14049593241594,8.3500362278522395,0.11868706641549288,0,1.2330893009376700,1,-9999.,-9999.,-29.417638954622873,2,-9999.,-9999.,7.77635272904225738E-002,-308.86753866207545,12.532401581302434,0.31605466898669315,-2156.5655908091512,-1.00159253639466646E-002,92.043003572489724,168.28396614085895,252.12004663260279
201810062300,453.62198555738934,8.2931898693779189,0.19140813727370717,0,-6.2200901463772871,2,120.01319047054596,1,-18.325217098952326,1,2.6774946370951209,1,0.62227899747562487,-2.0394192685905246,-38.033501934738830,0.40130488110399548,875.40875277912630,2.46741878367417698E-002,111.62012891189548,204.07719506517660,305.74482594150533
201810062330,470.95585642571444,8.0167432412481645,0.10916266703737994,0,-3.1804069195745219,1,-9999.,-9999.,-0.69348689901626870,2,-9999.,-9999.,-14.238132796536288,2842.0834127550856,13.908503133525320,0.30266895271594918,734.64010354714583,2.94021520138994311E-002,85.600427042830475,156.50488149024557,234.47283139573193
201810070000,449.12065345461474,7.9871044370537163,0.10513120865192867,0,-7.6044683574164065,0,52.307295639997065,0,-4.0871313025100946,1,1.1661277902311802,0,-3.6218485327995702,-1.0678858581515271,-17.539017813028064,0.29686745735441183,290.01974380182520,7.44776880251283996E-002,98.487800755466168,180.06711085397728,269.77334458294627
